• In Hungary
  • List of Countries
  • For 7 days
  • Water Temperature
  • Satellite Maps
  • Weather Map
  • News
  • Weather Widgets
  • user-avatar
    Login

    Hourly Weather Mingora

    Today, 23 September, Saturday

    Time Temperature Precipitation Wind Pressure Humidity
    00:00 +21°C° 0 mm 3 mps 673 mmHg 46%
    01:00 +21°C° 0 mm 3 mps 673 mmHg 45%
    02:00 +20°C° 0 mm 3 mps 673 mmHg 45%
    03:00 +20°C° 0 mm 3 mps 673 mmHg 45%
    04:00 +20°C° 0 mm 3 mps 673 mmHg 45%
    05:00 +20°C° 0 mm 3 mps 673 mmHg 41%
    06:00 +23°C° 0 mm 2 mps 673 mmHg 39%
    07:00 +24°C° 0 mm 2 mps 674 mmHg 37%
    08:00 +26°C° 0 mm 2 mps 674 mmHg 36%
    09:00 +28°C° 0 mm 2 mps 675 mmHg 32%
    10:00 +30°C° 0 mm 2 mps 675 mmHg 27%
    11:00 +31°C° 0 mm 2 mps 675 mmHg 24%
    12:00 +31°C° 0 mm 2 mps 675 mmHg 23%
    13:00 +33°C° 0 mm 3 mps 675 mmHg 23%
    14:00 +33°C° 0 mm 3 mps 674 mmHg 22%
    15:00 +32°C° 0 mm 2 mps 674 mmHg 25%
    16:00 +31°C° 0 mm 2 mps 674 mmHg 27%
    17:00 +30°C° 0 mm 2 mps 674 mmHg 30%
    18:00 +28°C° 0 mm 2 mps 673 mmHg 33%
    19:00 +25°C° 0 mm 2 mps 673 mmHg 37%
    20:00 +23°C° 0 mm 2 mps 673 mmHg 40%
    21:00 +23°C° 0 mm 2 mps 674 mmHg 41%
    22:00 +21°C° 0 mm 2 mps 674 mmHg 41%
    23:00 +21°C° 0 mm 3 mps 674 mmHg 42%

    Tomorrow, 24 September, Sunday

    Time Temperature Precipitation Wind Pressure Humidity
    00:00 +21°C° 0 mm 3 mps 674 mmHg 42%
    01:00 +20°C° 0 mm 3 mps 674 mmHg 42%
    02:00 +20°C° 0 mm 3 mps 674 mmHg 43%
    03:00 +20°C° 0 mm 3 mps 674 mmHg 42%
    04:00 +20°C° 0 mm 3 mps 673 mmHg 42%
    05:00 +19°C° 0 mm 3 mps 673 mmHg 42%
    06:00 +21°C° 0 mm 2 mps 674 mmHg 40%
    07:00 +24°C° 0 mm 2 mps 675 mmHg 37%
    08:00 +26°C° 0 mm 1 mps 675 mmHg 34%
    09:00 +27°C° 0 mm 2 mps 676 mmHg 31%
    10:00 +29°C° 0 mm 2 mps 676 mmHg 28%
    11:00 +30°C° 0 mm 2 mps 676 mmHg 25%
    12:00 +31°C° 0 mm 2 mps 676 mmHg 25%
    13:00 +31°C° 0 mm 3 mps 675 mmHg 25%
    14:00 +33°C° 0 mm 3 mps 675 mmHg 24%
    15:00 +31°C° 0 mm 2 mps 675 mmHg 27%
    16:00 +30°C° 0 mm 2 mps 674 mmHg 29%
    17:00 +30°C° 0 mm 2 mps 674 mmHg 31%
    18:00 +27°C° 0 mm 2 mps 674 mmHg 35%
    19:00 +25°C° 0 mm 2 mps 674 mmHg 39%
    20:00 +23°C° 0 mm 2 mps 674 mmHg 42%
    21:00 +21°C° 0 mm 2 mps 674 mmHg 43%
    22:00 +21°C° 0 mm 2 mps 674 mmHg 43%
    23:00 +21°C° 0 mm 3 mps 674 mmHg 43%

    Day after tomorrow, 25 September, Monday

    Time Temperature Precipitation Wind Pressure Humidity
    00:00 +20°C° 0 mm 3 mps 673 mmHg 43%
    01:00 +20°C° 0 mm 3 mps 673 mmHg 43%
    02:00 +20°C° 0 mm 3 mps 673 mmHg 43%
    03:00 +20°C° 0 mm 3 mps 673 mmHg 42%
    04:00 +19°C° 0 mm 3 mps 672 mmHg 41%
    05:00 +19°C° 0 mm 3 mps 672 mmHg 40%
    06:00 +21°C° 0 mm 2 mps 673 mmHg 38%
    07:00 +24°C° 0 mm 2 mps 674 mmHg 36%
    08:00 +26°C° 0 mm 2 mps 674 mmHg 33%
    09:00 +27°C° 0 mm 2 mps 674 mmHg 30%
    10:00 +29°C° 0 mm 2 mps 675 mmHg 26%
    11:00 +31°C° 0 mm 2 mps 675 mmHg 23%
    12:00 +31°C° 0 mm 2 mps 674 mmHg 23%
    13:00 +33°C° 0 mm 3 mps 674 mmHg 23%
    14:00 +33°C° 0 mm 3 mps 674 mmHg 23%
    15:00 +31°C° 0 mm 2 mps 673 mmHg 25%
    16:00 +31°C° 0 mm 2 mps 673 mmHg 26%
    17:00 +30°C° 0 mm 2 mps 673 mmHg 28%
    18:00 +28°C° 0 mm 2 mps 673 mmHg 32%
    19:00 +25°C° 0 mm 2 mps 673 mmHg 35%
    20:00 +23°C° 0 mm 2 mps 673 mmHg 38%
    21:00 +23°C° 0 mm 2 mps 673 mmHg 39%
    22:00 +21°C° 0 mm 3 mps 673 mmHg 40%
    23:00 +21°C° 0 mm 3 mps 673 mmHg 41%

    26 September, Tuesday

    Time Temperature Precipitation Wind Pressure Humidity
    00:00 +20°C° 0 mm 3 mps 673 mmHg 40%
    01:00 +20°C° 0 mm 3 mps 673 mmHg 39%
    02:00 +20°C° 0 mm 3 mps 673 mmHg 39%
    03:00 +20°C° 0 mm 3 mps 673 mmHg 38%
    04:00 +19°C° 0 mm 3 mps 673 mmHg 37%
    05:00 +19°C° 0 mm 3 mps 673 mmHg 36%
    06:00 +21°C° 0 mm 3 mps 673 mmHg 34%
    07:00 +24°C° 0 mm 2 mps 674 mmHg 32%
    08:00 +26°C° 0 mm 2 mps 675 mmHg 30%
    09:00 +28°C° 0 mm 2 mps 675 mmHg 26%
    10:00 +30°C° 0 mm 2 mps 676 mmHg 23%
    11:00 +31°C° 0 mm 2 mps 676 mmHg 19%
    12:00 +32°C° 0 mm 2 mps 676 mmHg 19%
    13:00 +32°C° 0 mm 2 mps 675 mmHg 19%
    14:00 +34°C° 0 mm 3 mps 675 mmHg 18%
    15:00 +32°C° 0 mm 2 mps 675 mmHg 20%
    16:00 +31°C° 0 mm 2 mps 674 mmHg 22%
    17:00 +30°C° 0 mm 2 mps 674 mmHg 24%
    18:00 +28°C° 0 mm 2 mps 674 mmHg 27%
    19:00 +26°C° 0 mm 2 mps 674 mmHg 29%
    20:00 +23°C° 0 mm 2 mps 674 mmHg 32%
    21:00 +23°C° 0 mm 2 mps 674 mmHg 33%
    22:00 +21°C° 0 mm 3 mps 674 mmHg 35%
    23:00 +21°C° 0 mm 3 mps 674 mmHg 36%

    27 September, Wednesday

    Time Temperature Precipitation Wind Pressure Humidity
    00:00 +21°C° 0 mm 3 mps 674 mmHg 36%
    01:00 +20°C° 0 mm 3 mps 674 mmHg 36%
    02:00 +20°C° 0 mm 3 mps 674 mmHg 36%
    03:00 +20°C° 0 mm 3 mps 673 mmHg 36%
    04:00 +20°C° 0 mm 3 mps 673 mmHg 35%
    05:00 +19°C° 0 mm 3 mps 673 mmHg 34%
    06:00 +21°C° 0 mm 3 mps 674 mmHg 32%
    07:00 +24°C° 0 mm 2 mps 675 mmHg 30%
    08:00 +26°C° 0 mm 2 mps 675 mmHg 29%
    09:00 +28°C° 0 mm 2 mps 676 mmHg 25%
    10:00 +30°C° 0 mm 2 mps 676 mmHg 21%
    11:00 +32°C° 0 mm 2 mps 676 mmHg 17%
    12:00 +32°C° 0 mm 2 mps 676 mmHg 17%
    13:00 +34°C° 0 mm 2 mps 675 mmHg 16%
    14:00 +34°C° 0 mm 3 mps 675 mmHg 16%
    15:00 +32°C° 0 mm 2 mps 674 mmHg 18%
    16:00 +32°C° 0 mm 2 mps 674 mmHg 21%
    17:00 +31°C° 0 mm 2 mps 674 mmHg 23%
    18:00 +28°C° 0 mm 2 mps 674 mmHg 25%
    19:00 +26°C° 0 mm 2 mps 674 mmHg 27%
    20:00 +24°C° 0 mm 2 mps 674 mmHg 29%
    21:00 +23°C° 0 mm 2 mps 674 mmHg 29%
    22:00 +22°C° 0 mm 3 mps 674 mmHg 30%
    23:00 +21°C° 0 mm 3 mps 674 mmHg 30%

    28 September, Thursday

    Time Temperature Precipitation Wind Pressure Humidity
    00:00 +21°C° 0 mm 3 mps 673 mmHg 29%
    01:00 +21°C° 0 mm 3 mps 673 mmHg 29%
    02:00 +20°C° 0 mm 3 mps 673 mmHg 28%
    03:00 +20°C° 0 mm 3 mps 673 mmHg 27%
    04:00 +20°C° 0 mm 3 mps 673 mmHg 26%
    05:00 +20°C° 0 mm 3 mps 673 mmHg 25%
    06:00 +21°C° 0 mm 3 mps 673 mmHg 25%
    07:00 +24°C° 0 mm 3 mps 674 mmHg 24%
    08:00 +26°C° 0 mm 2 mps 675 mmHg 24%
    09:00 +28°C° 0 mm 2 mps 675 mmHg 21%
    10:00 +30°C° 0 mm 2 mps 675 mmHg 17%
    11:00 +32°C° 0 mm 2 mps 676 mmHg 14%
    12:00 +34°C° 0 mm 2 mps 675 mmHg 14%
    13:00 +34°C° 0 mm 2 mps 675 mmHg 14%
    14:00 +35°C° 0 mm 3 mps 674 mmHg 14%
    15:00 +34°C° 0 mm 2 mps 674 mmHg 16%
    16:00 +32°C° 0 mm 2 mps 674 mmHg 19%
    17:00 +31°C° 0 mm 2 mps 674 mmHg 21%
    18:00 +28°C° 0 mm 2 mps 674 mmHg 22%
    19:00 +26°C° 0 mm 2 mps 674 mmHg 24%
    20:00 +24°C° 0 mm 2 mps 674 mmHg 25%
    21:00 +22°C° 0 mm 3 mps 674 mmHg 25%
    22:00 +22°C° 0 mm 3 mps 674 mmHg 24%
    23:00 +21°C° 0 mm 3 mps 674 mmHg 24%
    Show more